Location: Newark
(49.3000°N, 9.4667°E)
Time: 01:04:06
(UTC+00:00)

Tiros 1 - Pass Details

Date: 29 May 2019
Orbit: 631 x 664 km, 48.4° (Epoch: 15 June)

Event Time Altitude Azimuth Distance (km) Brightness Sun altitude
Rises 11:05:56 0° 273° (W) 2,930 10.5 62.2°
Reaches altitude 10° 11:08:15 10° 272° (W) 2,025 9.8 62.2°
Maximum altitude 11:12:55 78° 188° (S) 659 9.2 62.3°
Drops below altitude 10° 11:17:37 10° 102° (ESE) 2,043 9.9 62.3°
Sets 11:19:58 0° 101° (E) 2,959 10.6 62.3°
